When you browse on this site, cookies collect data to enhance your experience and personalize the content and advertising you see.
Visit our Privacy Policy to learn more. By continuing to use the site, you agree to this use of cookies and data.
  • In United Kingdom
  • List of Countries
  • For 7 days
  • Water Temperature
  • Weather Map
  • Weather Widgets
  • user-avatar
    Login

    Hourly Weather Budakeszi

    Today, 10 December, Tuesday

    Time Temperature Precipitation Wind Pressure Humidity
    00:00 +3°C° 1.1 mm 1 mps 729 mmHg 95%
    01:00 +4°C° 1.1 mm 1 mps 729 mmHg 95%
    02:00 +3°C° 1.4 mm 2 mps 729 mmHg 95%
    03:00 +3°C° 1.4 mm 2 mps 730 mmHg 94%
    04:00 +2°C° 1.4 mm 3 mps 730 mmHg 93%
    05:00 +2°C° 0.1 mm 3 mps 731 mmHg 92%
    06:00 +2°C° 0.1 mm 3 mps 731 mmHg 90%
    07:00 +1°C° 0.1 mm 3 mps 732 mmHg 89%
    08:00 +1°C° 0 mm 4 mps 732 mmHg 86%
    09:00 +3°C° 0 mm 4 mps 733 mmHg 83%
    10:00 +2°C° 0 mm 5 mps 734 mmHg 80%
    11:00 +3°C° 0 mm 5 mps 734 mmHg 77%
    12:00 +3°C° 0 mm 6 mps 735 mmHg 74%
    13:00 +4°C° 0 mm 6 mps 735 mmHg 71%
    14:00 +3°C° 0 mm 6 mps 736 mmHg 69%
    15:00 +2°C° 0 mm 6 mps 736 mmHg 67%
    16:00 +2°C° 0 mm 6 mps 736 mmHg 64%
    17:00 +1°C° 0 mm 6 mps 737 mmHg 65%
    18:00 -1°C° 0 mm 6 mps 737 mmHg 66%
    19:00 -1°C° 0 mm 6 mps 738 mmHg 67%
    20:00 -1°C° 0 mm 5 mps 738 mmHg 69%
    21:00 -1°C° 0 mm 4 mps 738 mmHg 71%
    22:00 -2°C° 0 mm 4 mps 738 mmHg 73%
    23:00 -1°C° 0 mm 3 mps 738 mmHg 74%

    Tomorrow, 11 December, Wednesday

    Time Temperature Precipitation Wind Pressure Humidity
    00:00 -2°C° 0 mm 3 mps 738 mmHg 75%
    01:00 -2°C° 0 mm 2 mps 738 mmHg 76%
    02:00 -2°C° 0 mm 2 mps 737 mmHg 76%
    03:00 -2°C° 0 mm 2 mps 737 mmHg 77%
    04:00 -1°C° 0 mm 1 mps 737 mmHg 77%
    05:00 -1°C° 0 mm 1 mps 737 mmHg 77%
    06:00 -1°C° 0 mm 1 mps 736 mmHg 77%
    07:00 -1°C° 0 mm 1 mps 736 mmHg 77%
    08:00 0°C° 0 mm 1 mps 736 mmHg 74%
    09:00 +1°C° 0 mm 1 mps 736 mmHg 71%
    10:00 0°C° 0 mm 0 mps 736 mmHg 68%
    11:00 +2°C° 0 mm 1 mps 735 mmHg 66%
    12:00 +2°C° 0 mm 1 mps 735 mmHg 65%
    13:00 +3°C° 0 mm 1 mps 734 mmHg 64%
    14:00 +2°C° 0 mm 1 mps 734 mmHg 66%
    15:00 +1°C° 0 mm 1 mps 733 mmHg 69%
    16:00 0°C° 0 mm 1 mps 732 mmHg 72%
    17:00 0°C° 0 mm 1 mps 732 mmHg 72%
    18:00 0°C° 0 mm 1 mps 732 mmHg 72%
    19:00 -1°C° 0 mm 1 mps 732 mmHg 72%
    20:00 -1°C° 0 mm 1 mps 732 mmHg 72%
    21:00 -1°C° 0 mm 1 mps 732 mmHg 72%
    22:00 -1°C° 0 mm 1 mps 732 mmHg 72%
    23:00 -1°C° 0 mm 1 mps 731 mmHg 72%

    Day after tomorrow, 12 December, Thursday

    Time Temperature Precipitation Wind Pressure Humidity
    00:00 -1°C° 0 mm 1 mps 731 mmHg 73%
    01:00 -1°C° 0 mm 1 mps 731 mmHg 74%
    02:00 -1°C° 0 mm 1 mps 730 mmHg 74%
    03:00 -1°C° 0 mm 1 mps 730 mmHg 74%
    04:00 -3°C° 0 mm 2 mps 729 mmHg 74%
    05:00 -2°C° 0 mm 2 mps 729 mmHg 74%
    06:00 -2°C° 0 mm 2 mps 729 mmHg 73%
    07:00 -2°C° 0 mm 2 mps 729 mmHg 73%
    08:00 -2°C° 0.2 mm 2 mps 729 mmHg 79%
    09:00 -2°C° 0.2 mm 2 mps 729 mmHg 85%
    10:00 -2°C° 0.2 mm 2 mps 728 mmHg 91%
    11:00 -2°C° 0.5 mm 2 mps 728 mmHg 92%
    12:00 -2°C° 0.5 mm 2 mps 728 mmHg 94%
    13:00 +1°C° 0.5 mm 1 mps 728 mmHg 95%
    14:00 +1°C° 0.5 mm 1 mps 727 mmHg 96%
    15:00 +1°C° 0.5 mm 1 mps 727 mmHg 96%
    16:00 +1°C° 0.5 mm 1 mps 727 mmHg 97%
    17:00 +1°C° 0.2 mm 1 mps 727 mmHg 97%
    18:00 +1°C° 0.2 mm 1 mps 727 mmHg 97%
    19:00 +1°C° 0.2 mm 1 mps 727 mmHg 97%
    20:00 +1°C° 0 mm 1 mps 727 mmHg 97%
    21:00 +1°C° 0 mm 1 mps 726 mmHg 96%
    22:00 0°C° 0 mm 1 mps 726 mmHg 96%
    23:00 0°C° 0 mm 1 mps 726 mmHg 95%

    13 December, Friday

    Time Temperature Precipitation Wind Pressure Humidity
    00:00 0°C° 0 mm 1 mps 725 mmHg 95%
    01:00 0°C° 0 mm 1 mps 725 mmHg 94%
    02:00 0°C° 0 mm 1 mps 724 mmHg 94%
    03:00 0°C° 0 mm 1 mps 724 mmHg 94%
    04:00 0°C° 0 mm 1 mps 723 mmHg 94%
    05:00 -2°C° 0 mm 2 mps 723 mmHg 95%
    06:00 -2°C° 0 mm 3 mps 722 mmHg 95%
    07:00 -3°C° 0 mm 4 mps 722 mmHg 96%
    08:00 -2°C° 0 mm 4 mps 721 mmHg 94%
    09:00 -2°C° 0 mm 5 mps 720 mmHg 92%
    10:00 -2°C° 0 mm 5 mps 720 mmHg 90%
    11:00 -1°C° 0 mm 5 mps 719 mmHg 87%
    12:00 0°C° 0 mm 5 mps 719 mmHg 83%
    13:00 +1°C° 0 mm 5 mps 718 mmHg 80%
    14:00 0°C° 0.4 mm 5 mps 718 mmHg 84%
    15:00 0°C° 0.4 mm 5 mps 718 mmHg 88%
    16:00 0°C° 0.4 mm 5 mps 717 mmHg 92%
    17:00 0°C° 0.4 mm 4 mps 717 mmHg 91%
    18:00 +1°C° 0.4 mm 3 mps 718 mmHg 91%
    19:00 +3°C° 0.4 mm 1 mps 718 mmHg 91%
    20:00 +2°C° 2.3 mm 2 mps 718 mmHg 93%
    21:00 +1°C° 2.3 mm 2 mps 717 mmHg 95%
    22:00 +1°C° 2.3 mm 2 mps 717 mmHg 97%
    23:00 +1°C° 0.9 mm 2 mps 717 mmHg 97%

    14 December, Saturday

    Time Temperature Precipitation Wind Pressure Humidity
    00:00 +1°C° 0.9 mm 2 mps 717 mmHg 96%
    01:00 +1°C° 0.9 mm 2 mps 717 mmHg 96%
    02:00 0°C° 1.1 mm 3 mps 717 mmHg 96%
    03:00 0°C° 1.1 mm 3 mps 717 mmHg 96%
    04:00 0°C° 1.1 mm 3 mps 718 mmHg 96%
    05:00 0°C° 0.8 mm 3 mps 718 mmHg 96%
    06:00 0°C° 0.8 mm 3 mps 719 mmHg 95%
    07:00 +2°C° 0.8 mm 2 mps 719 mmHg 95%
    08:00 +2°C° 0.2 mm 2 mps 720 mmHg 93%
    09:00 +2°C° 0.2 mm 2 mps 720 mmHg 92%
    10:00 +4°C° 0.2 mm 1 mps 721 mmHg 90%
    11:00 +3°C° 0 mm 2 mps 721 mmHg 86%
    12:00 +4°C° 0 mm 2 mps 721 mmHg 82%
    13:00 +4°C° 0 mm 2 mps 721 mmHg 77%
    14:00 +4°C° 0 mm 2 mps 722 mmHg 79%
    15:00 +3°C° 0 mm 2 mps 722 mmHg 82%
    16:00 +2°C° 0 mm 2 mps 723 mmHg 84%
    17:00 +2°C° 0 mm 3 mps 723 mmHg 83%
    18:00 +2°C° 0 mm 3 mps 724 mmHg 82%
    19:00 +1°C° 0 mm 4 mps 725 mmHg 81%
    20:00 +1°C° 0 mm 4 mps 726 mmHg 82%
    21:00 +1°C° 0 mm 3 mps 727 mmHg 83%
    22:00 +2°C° 0 mm 2 mps 727 mmHg 84%
    23:00 +1°C° 0 mm 3 mps 728 mmHg 84%

    15 December, Sunday

    Time Temperature Precipitation Wind Pressure Humidity
    00:00 +1°C° 0 mm 3 mps 728 mmHg 84%
    01:00 +1°C° 0 mm 3 mps 729 mmHg 85%
    02:00 +1°C° 0 mm 4 mps 730 mmHg 82%
    03:00 +1°C° 0 mm 4 mps 730 mmHg 79%
    04:00 +2°C° 0 mm 5 mps 731 mmHg 77%
    05:00 +1°C° 0 mm 4 mps 732 mmHg 78%
    06:00 +2°C° 0 mm 3 mps 732 mmHg 79%
    07:00 +2°C° 0 mm 3 mps 733 mmHg 80%
    08:00 +4°C° 0 mm 2 mps 734 mmHg 80%
    09:00 +4°C° 0 mm 2 mps 734 mmHg 79%
    10:00 +6°C° 0 mm 1 mps 735 mmHg 79%
    11:00 +6°C° 0 mm 1 mps 735 mmHg 77%
    12:00 +6°C° 0 mm 2 mps 735 mmHg 75%
    13:00 +7°C° 0 mm 2 mps 735 mmHg 73%
    14:00 +6°C° 0 mm 2 mps 735 mmHg 75%
    15:00 +5°C° 0 mm 2 mps 735 mmHg 77%
    16:00 +4°C° 0 mm 2 mps 735 mmHg 78%
    17:00 +4°C° 0 mm 2 mps 735 mmHg 78%
    18:00 +4°C° 0 mm 2 mps 735 mmHg 78%
    19:00 +3°C° 0 mm 2 mps 735 mmHg 78%
    20:00 +3°C° 0 mm 2 mps 736 mmHg 78%
    21:00 +3°C° 0 mm 2 mps 736 mmHg 78%
    22:00 +3°C° 0 mm 2 mps 736 mmHg 78%
    23:00 +3°C° 0 mm 2 mps 736 mmHg 78%
    Show more